STARLINK-34109, 63807

Orbit data source: Space-Track

STARLINK-34109, 63807 is a payload satellite owned by SpaceX/Seattle (US) in LEO that was launched on Sun, 04 May 2025 UTC via an FALCON 9 launch vehicle from the Air Force Eastern Test Range (AFETR). Payload-class satellites include a variety of spacecraft equipped with specific instruments for various scientific and technological missions. These include communications satellites like Starlink; space stations such as the ISS; scientific satellites like the Hubble; Earth observation satellites from companies like Planet Labs, Umbra, and HawkEye 360; GPS; miniature CubeSats for education and research; and military/defense satellites.

Loading next visibility...
Identifier
63807, 2025-092D
Orbit
LEO
Last TLE update
19 hours ago
Origin
Manufacturer
SpaceX/Seattle
Mission
Operational Commercial Communications
Bus & Motor
STARLINK V2MO, Unknown motor
Mass
575 kg wet, ~530 kg dry
Launch date (UTC)
2025-05-04 (2 months ago)
Launch vehicle
FALCON 9
Launch site
Air Force Eastern Test Range (AFETR)
Object type
Payload
Rocket body
Debris
Shape & HBR
Box + 1 Pan, 29 m
Radar Cross Section
41.120 m², Large (>1 m²)

Expand to show TLE details & history

TLE from 19 hours ago
0 STARLINK-34109
1 63807U 25092D   25188.85942262  .00019204  00000-0  70555-3 0  9995
2 63807  43.0021 114.9907 0001554 272.2542  87.8132 15.27580978 11177
Epoch: 2025-07-07T20:37Z
TLE epoch observation values (Epoch: 2025-07-07T20:37:34.114Z)
Latitude
0.00001°
Longitude
-120.46415°
Altitude
482.781 km
Speed
7.626 km/s
True Right ascension
07h 39m 57s
True Declination
0° 00' 00"
Sunlit
Object was in daylight at epoch
Visualization orbit readout
Latitude
-13.76392°
Longitude
-140.01848°
Altitude
485.03 km
Speed
7.624 km/s
Apparent Right ascension
09h 30m 52s
Apparent Declination
-51° 17' 19"
Sunlit
Object is in daylight
Visualization observer readout
Local Sidereal Time
03:28:58
Azimuth
133.582° SE
Elevation
-30.309°
Doppler factor
1
Orbital elements
Apogee altitude
486.058 km
Perigee altitude
483.924 km
Semi-major axis
6,863.128 km
Eccentricity
0.00016
Inclination
43.0021°
RAAN
114.9907°
Arg. of periapsis
272.2542°
True anomaly
Unknown
Mean anomaly
87.8132°
Eccentric anomaly
Unknown
Mean motion
3.81733 °/min
Orbital period
94.31 mins
BSTAR
0.00070555
Loading maneuver chart data...
Loading SW <> Apogee altitude chart data...
Loading historical data...
Loading historical data...
Loading historical data...
Loading historical data...
Loading historical data...
Loading historical data...
Loading historical data...

STARLINK-34109 Visibility forecast

Observer location: undefined°, undefined°

Span
Click to sort rows by Start time (UTC) header in descending order
Start Az.
Max El. time (UTC)
Max El. Az.
Max El.
End time (UTC)
End Az.
5 mins2025-07-08 21:56:07.247Z201.633° SSW2025-07-08 21:58:07.247Z161.572° S25.393°2025-07-08 22:01:07.247Z93.074° ESE
5 mins2025-07-08 23:35:07.247Z260.442° W2025-07-08 23:37:07.247Z309.23° NW43.929°2025-07-08 23:40:07.247Z69.673° E
6 mins2025-07-09 01:14:07.247Z291.596° WNW2025-07-09 01:16:07.247Z339.6° N37.215°2025-07-09 01:20:07.247Z79.793° E
6 mins2025-07-09 02:53:07.247Z286.769° WNW2025-07-09 02:55:07.247Z276.03° WNW42.486°2025-07-09 02:59:07.247Z112.182° ESE
|